[[{"header":{"parameterUnit":"m.s-1","parameterCategory":2,"la1":30.2992,"la2":30.254,"lo1":-89.0895,"lo2":-89.0443,"dy":0.0025,"dx":0.0025,"nx":19,"ny":19,"refTime":"2026-03-19T03:00:00:Z","depth":"0","parameterNumber":2,"parameterNumberName":"U-component_of_CURRENTS"},"data":[0,0,0,0.0604,0.0604,0.0631,0.0631,0.0729,0.0729,0,0,0,0,0,0,0,0,0,0,0,0.0596,0.0596,0.0604,0.0604,0.0631,0.0631,0.0728,0.0729,0,0,0,0,0,0,0,0,0,0,0,0.0596,0.0596,0.0596,0.0605,0.0631,0.0631,0.0728,0.0695,0,0,0,0,0,0,0,0,0,0,0.0662,0.0643,0.0596,0.0596,0.0605,0.0631,0.0631,0.0692,0.0697,0.0732,0,0.0729,0,0.0729,0.0737,0.0737,0,0,0,0.0613,0.0639,0.0644,0.0596,0.0605,0.0631,0.0621,0.0694,0.0699,0.0738,0.0731,0.0734,0.0731,0.0737,0.0738,0.0799,0.0799,0,0,0.0612,0.0608,0.064,0.0647,0.0605,0.0621,0.0622,0.0697,0.0702,0.0731,0.0736,0.0732,0.0738,0.0739,0.0799,0.0799,0,0,0,0.0602,0.0607,0.0609,0.0643,0.0641,0.0621,0.0623,0.0699,0.0698,0.0737,0.0733,0.0739,0.074,0.0799,0.0799,0.0715,0,0,0,0.0601,0.06,0.0608,0.0607,0.0639,0.0662,0.0624,0.0693,0.0701,0.0733,0.0739,0.0741,0.0799,0.0799,0.0717,0.0711,0,0,0,0.0596,0.06,0.06,0.0606,0.0613,0.066,0.0664,0.0695,0.07,0.0737,0.0741,0.0799,0.0799,0.072,0.0714,0.071,0,0,0,0.0596,0.0593,0.06,0.059,0.0612,0.0617,0.0664,0.0678,0.0704,0.0739,0.0799,0.0799,0.0721,0.0716,0.0712,0.0686,0.0676,0,0,0.0591,0.0592,0.0584,0.059,0.0584,0.0615,0.0613,0.0666,0.0715,0.0781,0.0782,0.0717,0.0714,0.071,0.0668,0.0658,0,0,0,0.058,0.0578,0.0576,0.0573,0.0578,0.059,0.0629,0.0646,0.0686,0.0727,0.0734,0.0736,0.0736,0.0724,0.0717,0.0679,0.0797,0.0797,0.0797,0.0584,0.0573,0.0563,0.0556,0.056,0.0575,0.0584,0.0622,0.0658,0.0658,0.0679,0.0638,0.0624,0.0618,0.0579,0.0677,0.0677,0.0676,0.0676,0.0575,0.0561,0.0555,0.0543,0.0545,0.0548,0.0562,0.0571,0.0592,0.0622,0.0625,0.0651,0.0605,0.0566,0.0671,0.0672,0.0673,0.0673,0.0673,0.0572,0.0562,0.0555,0.0538,0.0533,0.0535,0.0531,0.0537,0.055,0.0539,0.0562,0.0563,0.0523,0.054,0.054,0.054,0.054,0.054,0.0539,0.0568,0.0558,0.0548,0.0536,0.053,0.0525,0.0518,0.0513,0.0499,0.05,0.05,0.0505,0.0598,0.0597,0.0538,0.0539,0.0539,0.0539,0.0539,0.0536,0.0549,0.0534,0.0529,0.052,0.0515,0.0504,0.0467,0.0462,0.0444,0.0411,0.0486,0.0524,0.0531,0.0529,0.0457,0.0457,0.0457,0.0457,0.0522,0.0526,0.0514,0.051,0.0512,0.0511,0.0449,0.039,0.0357,0.0353,0.0355,0.0351,0.0356,0.0386,0.0395,0.0392,0.0287,0.0287,0.0286,0.0492,0.0505,0.0489,0.0502,0.0509,0.0504,0.0417,0.0299,0.0298,0.0277,0.0303,0.0311,0.0304,0.0315,0.0365,0.0382,0.038,0,0]},{"header":{"parameterUnit":"m.s-1","parameterCategory":2,"la1":30.2992,"la2":30.254,"lo1":-89.0895,"lo2":-89.0443,"dy":0.0025,"dx":0.0025,"nx":19,"ny":19,"refTime":"2026-03-19T03:00:00:Z","depth":"0","parameterNumber":3,"parameterNumberName":"V-component_of_CURRENTS"},"data":[0,0,0,-0.098,-0.0978,-0.09,-0.0899,-0.0811,-0.081,0,0,0,0,0,0,0,0,0,0,0,-0.1013,-0.1012,-0.098,-0.0978,-0.09,-0.0899,-0.0811,-0.081,0,0,0,0,0,0,0,0,0,0,0,-0.1013,-0.1012,-0.1012,-0.0978,-0.09,-0.0899,-0.0811,-0.0866,0,0,0,0,0,0,0,0,0,0,-0.094,-0.0979,-0.1013,-0.1012,-0.0977,-0.09,-0.0899,-0.0869,-0.0863,-0.0851,0,-0.0845,0,-0.0825,-0.0805,-0.0805,0,0,0,-0.0973,-0.0984,-0.0955,-0.1012,-0.0977,-0.09,-0.0934,-0.0865,-0.0858,-0.0844,-0.0844,-0.084,-0.0824,-0.0804,-0.0804,-0.0776,-0.0776,0,0,-0.0977,-0.1003,-0.0959,-0.0951,-0.0964,-0.0936,-0.0931,-0.0861,-0.0863,-0.0844,-0.0838,-0.0822,-0.0804,-0.0803,-0.0776,-0.0776,0,0,0,-0.0993,-0.1007,-0.0979,-0.0955,-0.0939,-0.0934,-0.0928,-0.0866,-0.0854,-0.0837,-0.0821,-0.0803,-0.0803,-0.0776,-0.0776,-0.081,0,0,0,-0.0996,-0.1016,-0.0981,-0.0997,-0.0941,-0.0902,-0.0935,-0.0859,-0.0851,-0.0822,-0.0803,-0.0802,-0.0775,-0.0776,-0.0808,-0.0819,0,0,0,-0.1015,-0.1018,-0.101,-0.0998,-0.0965,-0.0902,-0.0887,-0.0857,-0.0841,-0.0805,-0.0802,-0.0775,-0.0776,-0.0807,-0.0817,-0.081,0,0,0,-0.1043,-0.1046,-0.1011,-0.1004,-0.0965,-0.0929,-0.0887,-0.0856,-0.0829,-0.0803,-0.0775,-0.0776,-0.0806,-0.0815,-0.0809,-0.0793,-0.0796,0,0,-0.1064,-0.105,-0.1043,-0.1009,-0.0984,-0.0939,-0.092,-0.0865,-0.0835,-0.0797,-0.0796,-0.0809,-0.0816,-0.081,-0.083,-0.0832,0,0,0,-0.1059,-0.1058,-0.1044,-0.1018,-0.0978,-0.0951,-0.09,-0.0874,-0.0837,-0.0822,-0.0812,-0.0816,-0.0811,-0.0799,-0.0801,-0.071,-0.0779,-0.0779,-0.0779,-0.1143,-0.1096,-0.1084,-0.1032,-0.101,-0.0957,-0.0933,-0.0892,-0.086,-0.0854,-0.0847,-0.0869,-0.0859,-0.086,-0.0767,-0.0852,-0.0852,-0.0852,-0.0853,-0.1173,-0.1155,-0.1107,-0.1077,-0.1036,-0.1014,-0.0955,-0.093,-0.0893,-0.0873,-0.0867,-0.084,-0.0864,-0.0763,-0.0855,-0.0854,-0.0854,-0.0854,-0.0854,-0.1223,-0.1202,-0.1176,-0.1122,-0.1092,-0.104,-0.1004,-0.0965,-0.0923,-0.0922,-0.0886,-0.0885,-0.0792,-0.0913,-0.0913,-0.0913,-0.0913,-0.0913,-0.0913,-0.1275,-0.1241,-0.1216,-0.1166,-0.1133,-0.109,-0.1028,-0.1,-0.0951,-0.0917,-0.0917,-0.0789,-0.0887,-0.0879,-0.0914,-0.0914,-0.0914,-0.0914,-0.0914,-0.129,-0.1288,-0.1246,-0.1218,-0.1139,-0.1108,-0.1066,-0.1005,-0.0974,-0.095,-0.0791,-0.0905,-0.0886,-0.0884,-0.0875,-0.0907,-0.0907,-0.0907,-0.0907,-0.1307,-0.1303,-0.1244,-0.1196,-0.115,-0.1106,-0.1062,-0.0998,-0.0866,-0.0782,-0.0737,-0.0712,-0.0717,-0.0686,-0.0688,-0.0674,-0.0654,-0.0654,-0.0653,-0.1292,-0.1288,-0.1243,-0.1199,-0.1143,-0.1103,-0.1044,-0.0959,-0.0777,-0.0633,-0.0613,-0.0623,-0.0578,-0.0592,-0.0536,-0.0547,-0.0522,0,0]}],[{"header":{"parameterUnit":"m.s-1","parameterCategory":2,"la1":30.2992,"la2":30.254,"lo1":-89.0895,"lo2":-89.0443,"dy":0.0025,"dx":0.0025,"nx":19,"ny":19,"refTime":"2026-03-19T03:00:00:Z","depth":"2","parameterNumber":2,"parameterNumberName":"U-component_of_CURRENTS"},"data":[0,0,0,-0.1148,-0.1147,-0.1086,-0.1086,-0.1112,-0.1112,0,0,0,0,0,0,0,0,0,0,0,-0.1156,-0.1155,-0.1148,-0.1147,-0.1086,-0.1086,-0.1112,-0.1112,0,0,0,0,0,0,0,0,0,0,0,-0.1157,-0.1156,-0.1154,-0.1146,-0.1086,-0.1086,-0.1112,-0.1133,0,0,0,0,0,0,0,0,0,0,-0.1179,-0.1165,-0.1156,-0.1154,-0.1146,-0.1086,-0.1086,-0.1133,-0.1132,-0.1168,0,-0.114,0,-0.1133,-0.1116,-0.1116,0,0,0,-0.1151,-0.1166,-0.1156,-0.1154,-0.1145,-0.1086,-0.1115,-0.1131,-0.113,-0.1167,-0.114,-0.114,-0.1133,-0.1117,-0.1117,-0.1157,-0.1157,0,0,-0.1154,-0.1147,-0.1156,-0.1154,-0.1108,-0.1116,-0.1113,-0.1129,-0.1118,-0.114,-0.1141,-0.1134,-0.1117,-0.1117,-0.1157,-0.1157,0,0,0,-0.1161,-0.1149,-0.1136,-0.1154,-0.1137,-0.1115,-0.111,-0.1117,-0.1113,-0.1141,-0.1134,-0.1117,-0.1118,-0.1157,-0.1157,-0.1133,0,0,0,-0.1163,-0.1153,-0.1137,-0.1133,-0.1136,-0.1112,-0.1097,-0.1111,-0.1113,-0.1134,-0.1117,-0.1118,-0.1157,-0.1157,-0.1134,-0.1175,0,0,0,-0.1163,-0.1154,-0.114,-0.1132,-0.1106,-0.1111,-0.1107,-0.1111,-0.111,-0.1116,-0.1119,-0.1157,-0.1157,-0.1135,-0.1174,-0.1215,0,0,0,-0.1168,-0.1136,-0.1139,-0.1114,-0.1106,-0.1113,-0.1107,-0.1089,-0.1088,-0.1118,-0.1157,-0.1157,-0.1135,-0.1174,-0.1214,-0.1295,-0.1307,0,0,-0.1137,-0.1131,-0.1123,-0.1126,-0.113,-0.1123,-0.1132,-0.1107,-0.1108,-0.116,-0.1159,-0.1134,-0.1174,-0.1215,-0.1298,-0.1309,0,0,0,-0.1122,-0.111,-0.1116,-0.1112,-0.1126,-0.1151,-0.1121,-0.112,-0.1111,-0.1107,-0.1141,-0.1169,-0.1195,-0.1241,-0.125,-0.1157,-0.1157,-0.1157,-0.1157,-0.1062,-0.1086,-0.1096,-0.1123,-0.1136,-0.1153,-0.1176,-0.1173,-0.1134,-0.1113,-0.1153,-0.1179,-0.1226,-0.1234,-0.113,-0.113,-0.113,-0.113,-0.113,-0.1051,-0.106,-0.1105,-0.111,-0.1153,-0.1151,-0.1213,-0.1181,-0.1206,-0.1154,-0.1178,-0.1219,-0.1243,-0.1128,-0.1128,-0.1128,-0.1129,-0.1129,-0.1129,-0.1019,-0.1033,-0.1036,-0.1077,-0.1108,-0.1141,-0.1212,-0.1226,-0.1215,-0.1239,-0.1283,-0.1285,-0.1199,-0.1212,-0.1213,-0.1213,-0.1213,-0.1214,-0.1214,-0.0981,-0.1005,-0.1001,-0.105,-0.1061,-0.1118,-0.1194,-0.1241,-0.1304,-0.1315,-0.1315,-0.1209,-0.1206,-0.1206,-0.1219,-0.1218,-0.1217,-0.1217,-0.1217,-0.0938,-0.0941,-0.0953,-0.0962,-0.1043,-0.1141,-0.1247,-0.1396,-0.1429,-0.1494,-0.138,-0.1374,-0.1409,-0.1402,-0.1408,-0.1473,-0.1473,-0.1473,-0.1473,-0.0901,-0.091,-0.0915,-0.0942,-0.1036,-0.1152,-0.1319,-0.1363,-0.141,-0.1353,-0.1357,-0.1308,-0.1304,-0.1328,-0.1323,-0.1326,-0.1369,-0.1368,-0.1367,-0.0887,-0.089,-0.0878,-0.0905,-0.1011,-0.1174,-0.1316,-0.1277,-0.1202,-0.1349,-0.1194,-0.1494,-0.1435,-0.1422,-0.1469,-0.1457,-0.1465,0,0]},{"header":{"parameterUnit":"m.s-1","parameterCategory":2,"la1":30.2992,"la2":30.254,"lo1":-89.0895,"lo2":-89.0443,"dy":0.0025,"dx":0.0025,"nx":19,"ny":19,"refTime":"2026-03-19T03:00:00:Z","depth":"2","parameterNumber":3,"parameterNumberName":"V-component_of_CURRENTS"},"data":[0,0,0,0.036,0.0359,0.0294,0.0293,0.0155,0.0153,0,0,0,0,0,0,0,0,0,0,0,0.0388,0.0388,0.036,0.0359,0.0294,0.0293,0.0155,0.0153,0,0,0,0,0,0,0,0,0,0,0,0.0387,0.0388,0.0388,0.0359,0.0294,0.0293,0.0155,0.0214,0,0,0,0,0,0,0,0,0,0,0.0282,0.033,0.0388,0.0388,0.0358,0.0294,0.0293,0.0217,0.021,0.0174,0,0.0182,0,0.0169,0.0145,0.0144,0,0,0,0.0341,0.0336,0.0313,0.0388,0.0358,0.0294,0.0318,0.0213,0.0205,0.0165,0.018,0.0175,0.0166,0.0144,0.0143,0.0027,0.0027,0,0,0.0344,0.0373,0.0319,0.0309,0.0363,0.032,0.0316,0.0209,0.0212,0.0179,0.0172,0.0164,0.0143,0.0142,0.0028,0.0027,0,0,0,0.0367,0.0376,0.0356,0.0315,0.031,0.0319,0.0314,0.0216,0.021,0.017,0.0162,0.0142,0.014,0.0028,0.0027,0.0069,0,0,0,0.0368,0.039,0.0358,0.0374,0.0313,0.0272,0.0324,0.0217,0.0204,0.0163,0.0142,0.0139,0.0028,0.0028,0.0069,0.0098,0,0,0,0.0387,0.0391,0.039,0.0376,0.0354,0.0274,0.026,0.0214,0.02,0.0144,0.0139,0.0028,0.0028,0.0068,0.0097,0.0153,0,0,0,0.0407,0.0412,0.0391,0.0374,0.0355,0.0274,0.026,0.0199,0.0151,0.0141,0.0028,0.0027,0.0068,0.0096,0.0152,0.0258,0.0274,0,0,0.0419,0.0414,0.0395,0.0375,0.0307,0.028,0.0212,0.0156,0.0129,0.0057,0.0054,0.0069,0.0097,0.0153,0.022,0.0238,0,0,0,0.04,0.0394,0.0364,0.0325,0.026,0.0215,0.0157,0.0138,0.0096,0.0103,0.0044,0.0059,0.0095,0.0153,0.0167,0.0024,0.0024,0.0025,0.0025,0.0466,0.0405,0.0359,0.0283,0.0235,0.0163,0.0137,0.0104,0.0069,0.0067,0.0075,0.0119,0.018,0.0192,0.0046,0.0046,0.0046,0.0046,0.0046,0.0465,0.0437,0.0358,0.0309,0.0246,0.02,0.0125,0.012,0.0117,0.0079,0.0112,0.017,0.021,0.0049,0.0048,0.0048,0.0048,0.0047,0.0047,0.0514,0.049,0.0459,0.0375,0.0317,0.0238,0.0205,0.017,0.0172,0.019,0.0277,0.0278,0.0181,0.0219,0.022,0.022,0.0221,0.0221,0.0221,0.0593,0.0541,0.0516,0.043,0.0378,0.0318,0.0259,0.028,0.0339,0.0338,0.0339,0.0179,0.0173,0.019,0.0227,0.0226,0.0225,0.0224,0.0224,0.0627,0.0637,0.0575,0.053,0.0389,0.0303,0.0287,0.0398,0.0463,0.054,0.0428,0.0421,0.0428,0.0417,0.0439,0.0538,0.0538,0.0538,0.0538,0.0678,0.0666,0.0595,0.0496,0.0387,0.0281,0.0243,0.0192,0.0331,0.0363,0.0368,0.0314,0.031,0.0304,0.0295,0.0312,0.0377,0.0376,0.0375,0.0676,0.0661,0.0606,0.051,0.0361,0.0263,0.012,0.0031,0.0303,0.0349,0.014,0.0566,0.0506,0.049,0.0493,0.0474,0.0506,0,0]}],[{"header":{"parameterUnit":"m.s-1","parameterCategory":2,"la1":30.2992,"la2":30.254,"lo1":-89.0895,"lo2":-89.0443,"dy":0.0025,"dx":0.0025,"nx":19,"ny":19,"refTime":"2026-03-19T03:00:00:Z","depth":"4","parameterNumber":2,"parameterNumberName":"U-component_of_CURRENTS"},"data":[0,0,0,-0.1108,-0.111,-0.124,-0.1241,-0.1335,-0.1336,0,0,0,0,0,0,0,0,0,0,0,-0.1066,-0.1067,-0.1107,-0.1111,-0.124,-0.1241,-0.1335,-0.1336,0,0,0,0,0,0,0,0,0,0,0,-0.1066,-0.1067,-0.1068,-0.1111,-0.124,-0.1241,-0.1335,-0.1254,0,0,0,0,0,0,0,0,0,0,-0.1137,-0.1111,-0.1067,-0.1068,-0.1112,-0.124,-0.1241,-0.1251,-0.1259,-0.1257,0,-0.1288,0,-0.1313,-0.1341,-0.1341,0,0,0,-0.1108,-0.1105,-0.1139,-0.1069,-0.1113,-0.124,-0.1181,-0.1256,-0.1265,-0.1267,-0.1289,-0.1294,-0.1315,-0.1341,-0.1342,-0.1452,-0.1453,0,0,-0.1101,-0.1088,-0.1133,-0.1145,-0.116,-0.1177,-0.1185,-0.1263,-0.1276,-0.129,-0.1296,-0.1316,-0.1342,-0.1342,-0.1451,-0.1452,0,0,0,-0.1082,-0.1082,-0.1116,-0.114,-0.1169,-0.1181,-0.119,-0.1273,-0.1285,-0.1297,-0.1317,-0.1342,-0.1343,-0.1451,-0.1452,-0.1483,0,0,0,-0.1078,-0.1072,-0.1113,-0.1106,-0.1169,-0.1233,-0.1198,-0.1279,-0.1289,-0.1317,-0.1342,-0.1344,-0.145,-0.1451,-0.1481,-0.1476,0,0,0,-0.1058,-0.1069,-0.1088,-0.1105,-0.1162,-0.1232,-0.1249,-0.1282,-0.1301,-0.1341,-0.1344,-0.145,-0.1451,-0.1479,-0.1473,-0.1472,0,0,0,-0.1033,-0.1064,-0.1088,-0.1138,-0.1161,-0.1243,-0.1249,-0.1316,-0.1354,-0.1343,-0.145,-0.1452,-0.1478,-0.1472,-0.147,-0.123,0,0,0,-0.1051,-0.1066,-0.1096,-0.1121,-0.1192,-0.1224,-0.1302,-0.1354,-0.1375,-0.1417,-0.1421,-0.1482,-0.1473,-0.1471,-0.1326,0,0,0,0,-0.1088,-0.1109,-0.1137,-0.119,-0.1249,-0.1306,-0.136,-0.1396,-0.1466,-0.1407,-0.1505,-0.1498,-0.1496,-0.1354,-0.1459,-0.1459,-0.1459,-0.1459,-0.1459,-0.1068,-0.1114,-0.1164,-0.1228,-0.1286,-0.1369,-0.1423,-0.148,-0.1495,-0.1542,-0.1542,-0.1585,-0.144,-0.1572,-0.1572,-0.1573,-0.1573,-0.1573,-0.1573,-0.1078,-0.1098,-0.1176,-0.1241,-0.1313,-0.1382,-0.1488,-0.1522,-0.1593,-0.1602,-0.1598,-0.142,-0.1577,-0.1576,-0.1575,-0.1575,-0.1575,-0.1574,-0.1574,-0.1038,-0.1051,-0.1117,-0.1207,-0.1293,-0.1388,-0.1436,-0.1537,-0.1608,-0.163,-0.1459,-0.1598,-0.1572,-0.1626,-0.1626,-0.1626,-0.1626,-0.1626,-0.1626,-0.0954,-0.102,-0.1062,-0.1169,-0.1213,-0.129,-0.1413,-0.143,-0.1521,-0.1458,-0.1629,-0.1602,-0.16,-0.1576,-0.1626,-0.1626,-0.1626,-0.1626,-0.1626,-0.0877,-0.0927,-0.0967,-0.1013,-0.1098,-0.1135,-0.1274,-0.1264,-0.127,-0.1236,-0.136,-0.1373,-0.1329,-0.1334,-0.1298,-0.1268,-0.1265,-0.1262,0,-0.0807,-0.0841,-0.0867,-0.0892,-0.0906,-0.1027,-0.0967,-0.1008,-0.1102,-0.1089,-0.1276,-0.1418,-0.1426,-0.1379,-0.1378,-0.1335,0,0,0,-0.0746,-0.0771,-0.0742,-0.0796,-0.0806,-0.0845,-0.094,-0.0906,-0.1119,-0.101,-0.1188,-0.1207,-0.1384,-0.1626,-0.159,-0.1588,-0.1545,0,0]},{"header":{"parameterUnit":"m.s-1","parameterCategory":2,"la1":30.2992,"la2":30.254,"lo1":-89.0895,"lo2":-89.0443,"dy":0.0025,"dx":0.0025,"nx":19,"ny":19,"refTime":"2026-03-19T03:00:00:Z","depth":"4","parameterNumber":3,"parameterNumberName":"V-component_of_CURRENTS"},"data":[0,0,0,-0.0115,-0.0115,-0.0075,-0.0075,-0.0011,-0.0011,0,0,0,0,0,0,0,0,0,0,0,-0.0129,-0.0129,-0.0115,-0.0114,-0.0075,-0.0075,-0.0011,-0.0011,0,0,0,0,0,0,0,0,0,0,0,-0.0129,-0.0129,-0.0129,-0.0114,-0.0075,-0.0075,-0.0011,-0.0042,0,0,0,0,0,0,0,0,0,0,-0.0081,-0.0101,-0.0129,-0.0129,-0.0114,-0.0076,-0.0075,-0.0044,-0.004,-0.0028,0,-0.0027,0,-0.0021,-0.0007,-0.0007,0,0,0,-0.0106,-0.0104,-0.0093,-0.0129,-0.0114,-0.0076,-0.0091,-0.0042,-0.0038,-0.0023,-0.0026,-0.0024,-0.002,-0.0007,-0.0006,0.0018,0.0017,0,0,-0.0108,-0.012,-0.0096,-0.0091,-0.0111,-0.0092,-0.009,-0.004,-0.0039,-0.0026,-0.0023,-0.0019,-0.0006,-0.0006,0.0018,0.0018,0,0,0,-0.012,-0.0122,-0.0111,-0.0093,-0.0089,-0.0091,-0.0088,-0.0041,-0.0038,-0.0022,-0.0018,-0.0006,-0.0005,0.0018,0.0018,-0.0075,0,0,0,-0.0121,-0.0129,-0.0112,-0.0119,-0.009,-0.0067,-0.0091,-0.0041,-0.0035,-0.0018,-0.0006,-0.0005,0.0018,0.0018,-0.0072,-0.0151,0,0,0,-0.0129,-0.013,-0.0127,-0.0119,-0.0106,-0.0068,-0.0061,-0.0039,-0.0033,-0.0007,-0.0004,0.0018,0.0018,-0.0069,-0.0145,-0.0211,0,0,0,-0.0139,-0.0153,-0.0128,-0.0146,-0.0107,-0.0107,-0.0061,-0.0052,-0.0035,-0.0006,0.0018,0.0018,-0.0068,-0.0141,-0.0207,-0.0136,0,0,0,-0.0165,-0.0156,-0.0169,-0.0146,-0.0172,-0.0111,-0.0134,-0.0089,-0.0034,0.0005,0.0005,-0.0073,-0.0144,-0.021,-0.0158,0,0,0,0,-0.0183,-0.0194,-0.0196,-0.0206,-0.0191,-0.0201,-0.0142,-0.0115,-0.0079,-0.0027,-0.0055,-0.0097,-0.0136,-0.008,0.0016,0.0016,0.0016,0.0016,0.0016,-0.0229,-0.0233,-0.0267,-0.0272,-0.0276,-0.0254,-0.0256,-0.0207,-0.0129,-0.0123,-0.0158,-0.0255,-0.0196,-0.0118,-0.0118,-0.0119,-0.0119,-0.0119,-0.012,-0.0285,-0.0315,-0.0329,-0.0363,-0.0374,-0.0385,-0.0361,-0.032,-0.0318,-0.0227,-0.0258,-0.0162,-0.0128,-0.0127,-0.0125,-0.0124,-0.0124,-0.0123,-0.0123,-0.0321,-0.0341,-0.036,-0.0426,-0.0478,-0.0475,-0.053,-0.0491,-0.0426,-0.0459,-0.038,-0.0334,-0.0345,-0.0458,-0.0458,-0.0459,-0.046,-0.046,-0.046,-0.0352,-0.0377,-0.0437,-0.0495,-0.0545,-0.0599,-0.0628,-0.063,-0.0584,-0.0509,-0.0491,-0.037,-0.0359,-0.0364,-0.047,-0.0469,-0.0467,-0.0466,-0.0466,-0.0402,-0.0414,-0.0501,-0.0558,-0.0671,-0.07,-0.0731,-0.0696,-0.0714,-0.0672,-0.0526,-0.052,-0.0492,-0.0479,-0.0486,-0.0634,-0.0633,-0.0633,0,-0.0435,-0.0449,-0.0569,-0.0669,-0.0754,-0.0771,-0.0757,-0.0746,-0.0688,-0.0661,-0.0733,-0.0573,-0.0565,-0.0533,-0.0521,-0.053,0,0,0,-0.0476,-0.0504,-0.0594,-0.0694,-0.0791,-0.0762,-0.0752,-0.0725,-0.0674,-0.0655,-0.0622,-0.0625,-0.0546,-0.05,-0.0443,-0.043,-0.0435,0,0]}]]